Location: Skalnate Pleso
(49.1889°N, 20.2450°E)
Time: 11:08:55
(UTC+01:00)

COSMOS 2487 - Pass Details

Date: 19 November 2019
Orbit: 443 x 448 km, 74.7° (Epoch: 12 December)

Event Time Altitude Azimuth Distance (km) Brightness Sun altitude
Exits shadow 04:28:53 - 179° (S) 2,327 6.1 -23.5°
Reaches altitude 10° 04:30:48 10° 171° (S) 1,561 5.3 -23.2°
Maximum altitude 04:33:56 34° 105° (ESE) 760 4.1 -22.7°
Drops below altitude 10° 04:37:06 10° 39° (NE) 1,575 5.6 -22.2°
Sets 04:39:18 0° 30° (NNE) 2,452 6.5 -21.8°
